| time (UTC) | temp F | wind direction | speed MPH | gust MPH | rain 1hr in | rain 24hr in | rain mn in | humidity % | barometer mb |
| 20260504222205 | 69 | 208 | 0.0 | 0.0 | 0.00 | 0.00 | 0.00 | 24 | 1004.5 |
| 20260504221441 | 70 | 338 | 0.0 | 0.0 | 0.00 | 0.00 | 0.00 | 25 | 1004.5 |
| 20260504220935 | 70 | 234 | 0.0 | 0.0 | 0.00 | 0.00 | 0.00 | 25 | 1004.6 |
| 20260504220429 | 70 | 296 | 1.0 | 6.0 | 0.00 | 0.00 | 0.00 | 24 | 1004.6 |
| 20260504215923 | 70 | 173 | 1.0 | 8.0 | 0.00 | 0.00 | 0.00 | 24 | 1004.6 |
| 20260504215417 | 71 | 224 | 1.0 | 8.0 | 0.00 | 0.00 | 0.00 | 22 | 1004.5 |
| 20260504215137 | 71 | 333 | 1.0 | 5.0 | 0.00 | 0.00 | 0.00 | 22 | 1004.5 |
| 20260504214902 | 71 | 306 | 1.0 | 5.0 | 0.00 | 0.00 | 0.00 | 23 | 1004.6 |
| 20260504213859 | 71 | 228 | 1.0 | 8.0 | 0.00 | 0.00 | 0.00 | 22 | 1004.5 |
| 20260504213352 | 71 | 142 | 1.0 | 8.0 | 0.00 | 0.00 | 0.00 | 23 | 1004.5 |
| 20260504212847 | 71 | 217 | 0.0 | 2.0 | 0.00 | 0.00 | 0.00 | 23 | 1004.4 |
| 20260504212341 | 70 | 292 | 0.0 | 2.0 | 0.00 | 0.00 | 0.00 | 24 | 1004.6 |
| 20260504211834 | 70 | 319 | 0.0 | 2.0 | 0.00 | 0.00 | 0.00 | 24 | 1004.5 |
| 20260504211329 | 70 | 221 | 1.0 | 6.0 | 0.00 | 0.00 | 0.00 | 25 | 1004.5 |
| 20260504211039 | 70 | 18 | 1.0 | 6.0 | 0.00 | 0.00 | 0.00 | 24 | 1004.4 |
| 20260504210537 | 71 | 178 | 0.0 | 5.0 | 0.00 | 0.00 | 0.00 | 25 | 1004.4 |
| 20260504205811 | 71 | 293 | 1.0 | 7.0 | 0.00 | 0.00 | 0.00 | 23 | 1004.5 |
| 20260504205305 | 71 | 194 | 2.0 | 10.0 | 0.00 | 0.00 | 0.00 | 23 | 1004.4 |
| 20260504204759 | 71 | 257 | 2.0 | 10.0 | 0.00 | 0.00 | 0.00 | 25 | 1004.4 |
| 20260504204253 | 70 | 211 | 2.0 | 9.0 | 0.00 | 0.00 | 0.00 | 24 | 1004.3 |
| 20260504203747 | 70 | 273 | 1.0 | 7.0 | 0.00 | 0.00 | 0.00 | 24 | 1004.4 |
| 20260504203241 | 70 | 232 | 1.0 | 5.0 | 0.00 | 0.00 | 0.00 | 25 | 1004.4 |
| 20260504202957 | 70 | 201 | 1.0 | 8.0 | 0.00 | 0.00 | 0.00 | 24 | 1004.3 |
| 20260504202230 | 70 | 84 | 1.0 | 8.0 | 0.00 | 0.00 | 0.00 | 24 | 1004.3 |
| 20260504201723 | 71 | 40 | 2.0 | 5.0 | 0.00 | 0.00 | 0.00 | 24 | 1004.3 |
| 20260504201217 | 70 | 271 | 2.0 | 5.0 | 0.00 | 0.00 | 0.00 | 26 | 1004.4 |
| 20260504200931 | 70 | 203 | 1.0 | 5.0 | 0.00 | 0.00 | 0.00 | 26 | 1004.5 |
| 20260504200205 | 71 | 263 | 1.0 | 4.0 | 0.00 | 0.00 | 0.00 | 26 | 1004.5 |
| 20260504195659 | 71 | 247 | 2.0 | 9.0 | 0.00 | 0.00 | 0.00 | 25 | 1004.6 |
| 20260504195153 | 71 | 262 | 2.0 | 9.0 | 0.00 | 0.00 | 0.00 | 23 | 1004.5 |
| 20260504195134 | 71 | 350 | 2.0 | 9.0 | 0.00 | 0.00 | 0.00 | 24 | 1004.5 |
| 20260504194141 | 72 | 275 | 2.0 | 7.0 | 0.00 | 0.00 | 0.00 | 23 | 1004.6 |
| 20260504193635 | 72 | 313 | 2.0 | 7.0 | 0.00 | 0.00 | 0.00 | 24 | 1004.7 |
| 20260504193129 | 72 | 240 | 1.0 | 6.0 | 0.00 | 0.00 | 0.00 | 24 | 1004.6 |
| 20260504192623 | 72 | 225 | 2.0 | 7.0 | 0.00 | 0.00 | 0.00 | 24 | 1004.6 |
| 20260504192117 | 72 | 205 | 1.0 | 7.0 | 0.00 | 0.00 | 0.00 | 24 | 1004.6 |
| 20260504191611 | 71 | 211 | 1.0 | 6.0 | 0.00 | 0.00 | 0.00 | 25 | 1004.7 |
| 20260504191105 | 71 | 181 | 2.0 | 6.0 | 0.00 | 0.00 | 0.00 | 25 | 1004.6 |
| 20260504190559 | 70 | 245 | 2.0 | 15.0 | 0.00 | 0.00 | 0.00 | 26 | 1004.7 |
| 20260504190313 | 70 | 156 | 3.0 | 15.0 | 0.00 | 0.00 | 0.00 | 25 | 1004.6 |
| 20260504185547 | 70 | 174 | 2.0 | 14.0 | 0.00 | 0.00 | 0.00 | 25 | 1004.6 |
| 20260504185305 | 69 | 195 | 2.0 | 14.0 | 0.00 | 0.00 | 0.00 | 28 | 1004.8 |
| 20260504184535 | 68 | 315 | 2.0 | 10.0 | 0.00 | 0.00 | 0.00 | 27 | 1005.0 |
| 20260504184029 | 67 | 241 | 0.0 | 10.0 | 0.00 | 0.00 | 0.00 | 28 | 1004.9 |
| 20260504183522 | 65 | 38 | 0.0 | 0.0 | 0.00 | 0.00 | 0.00 | 31 | 1005.0 |
| 20260504183017 | 65 | 294 | 0.0 | 0.0 | 0.00 | 0.00 | 0.00 | 31 | 1005.1 |
| 20260504182511 | 65 | 268 | 0.0 | 0.0 | 0.00 | 0.00 | 0.00 | 30 | 1005.1 |
| 20260504182005 | 65 | 271 | 0.0 | 0.0 | 0.00 | 0.00 | 0.00 | 31 | 1005.0 |
| 20260504181505 | 65 | 277 | 0.0 | 0.0 | 0.00 | 0.00 | 0.00 | 29 | 1005.1 |
| 20260504181006 | 65 | 269 | 0.0 | 0.0 | 0.00 | 0.00 | 0.00 | 29 | 1005.0 |
| 20260504180503 | 65 | 305 | 0.0 | 0.0 | 0.00 | 0.00 | 0.00 | 29 | 1005.0 |
| 20260504180002 | 65 | 238 | 0.0 | 0.0 | 0.00 | 0.00 | 0.00 | 28 | 1004.9 |
| 20260504175501 | 66 | 305 | 0.0 | 0.0 | 0.00 | 0.00 | 0.00 | 27 | 1004.9 |
| 20260504174959 | 66 | 257 | 0.0 | 0.0 | 0.00 | 0.00 | 0.00 | 27 | 1004.9 |
| 20260504174500 | 67 | 280 | 0.0 | 0.0 | 0.00 | 0.00 | 0.00 | 26 | 1004.9 |
| 20260504173958 | 67 | 239 | 0.0 | 0.0 | 0.00 | 0.00 | 0.00 | 27 | 1004.9 |
| 20260504173725 | 66 | 212 | 0.0 | 0.0 | 0.00 | 0.00 | 0.00 | 27 | 1004.8 |
| 20260504172959 | 65 | 250 | 0.0 | 0.0 | 0.00 | 0.00 | 0.00 | 27 | 1004.9 |
| 20260504172459 | 66 | 273 | 0.0 | 0.0 | 0.00 | 0.00 | 0.00 | 25 | 1005.0 |
| 20260504171957 | 67 | 91 | 0.0 | 0.0 | 0.00 | 0.00 | 0.00 | 24 | 1005.1 |
| 20260504171726 | 68 | 51 | 0.0 | 0.0 | 0.00 | 0.00 | 0.00 | 24 | 1004.9 |
| 20260504171216 | 68 | 273 | 0.0 | 0.0 | 0.00 | 0.00 | 0.00 | 23 | 1004.9 |
| 20260504170500 | 67 | 213 | 0.0 | 0.0 | 0.00 | 0.00 | 0.00 | 25 | 1004.8 |
| 20260504150927 | 64 | 198 | 1.0 | 9.0 | 0.00 | 0.00 | 0.00 | 32 | 1005.7 |
| 20260504150428 | 64 | 157 | 1.0 | 4.0 | 0.00 | 0.00 | 0.00 | 32 | 1005.7 |
| 20260504140928 | 58 | 223 | 0.0 | 0.0 | 0.00 | 0.00 | 0.00 | 42 | 1006.5 |
| 20260504140425 | 57 | 241 | 0.0 | 0.0 | 0.00 | 0.00 | 0.00 | 41 | 1006.4 |
| 20260504130423 | 51 | 205 | 0.0 | 0.0 | 0.00 | 0.00 | 0.00 | 50 | 1007.3 |
| 20260504110228 | 45 | 209 | 0.0 | 0.0 | 0.00 | 0.00 | 0.00 | 54 | 1007.6 |
| 20260504100116 | 39 | 234 | 0.0 | 0.0 | 0.00 | 0.00 | 0.00 | 59 | 1007.5 |
| 20260504081916 | 37 | 229 | 0.0 | 0.0 | 0.00 | 0.00 | 0.00 | 58 | 1007.8 |
| 20260504081631 | 37 | 229 | 0.0 | 0.0 | 0.00 | 0.00 | 0.00 | 58 | 1007.8 |
| 20260504080903 | 37 | 229 | 0.0 | 0.0 | 0.00 | 0.00 | 0.00 | 58 | 1007.8 |
| 20260504080358 | 37 | 229 | 0.0 | 0.0 | 0.00 | 0.00 | 0.00 | 59 | 1007.8 |
| 20260504070245 | 35 | 225 | 0.0 | 0.0 | 0.00 | 0.00 | 0.00 | 61 | 1007.8 |
| 20260504060134 | 33 | 187 | 0.0 | 0.0 | 0.00 | 0.00 | 0.00 | 65 | 1007.4 |
| 20260504050558 | 33 | 197 | 0.0 | 0.0 | 0.00 | 0.00 | 0.00 | 66 | 1007.4 |
| 20260504045557 | 34 | 197 | 0.0 | 0.0 | 0.00 | 0.00 | 0.00 | 65 | 1007.4 |
| 20260504045316 | 34 | 197 | 0.0 | 0.0 | 0.00 | 0.00 | 0.00 | 65 | 1007.3 |
| 20260504044826 | 34 | 197 | 0.0 | 0.0 | 0.00 | 0.00 | 0.00 | 65 | 1007.3 |
| 20260504044054 | 34 | 197 | 0.0 | 0.0 | 0.00 | 0.00 | 0.00 | 64 | 1007.3 |
| 20260504043553 | 34 | 197 | 0.0 | 0.0 | 0.00 | 0.00 | 0.00 | 64 | 1007.3 |
| 20260504043052 | 34 | 197 | 0.0 | 0.0 | 0.00 | 0.00 | 0.00 | 64 | 1007.3 |
| 20260504042552 | 34 | 197 | 0.0 | 0.0 | 0.00 | 0.00 | 0.00 | 64 | 1007.3 |
| 20260504042054 | 35 | 197 | 0.0 | 0.0 | 0.00 | 0.00 | 0.00 | 63 | 1007.4 |
| 20260504041554 | 35 | 197 | 0.0 | 0.0 | 0.00 | 0.00 | 0.00 | 63 | 1007.3 |
| 20260504041054 | 35 | 197 | 0.0 | 0.0 | 0.00 | 0.00 | 0.00 | 63 | 1007.4 |
| 20260504040553 | 35 | 197 | 0.0 | 0.0 | 0.00 | 0.00 | 0.00 | 63 | 1007.3 |
| 20260504040053 | 35 | 249 | 0.0 | 0.0 | 0.00 | 0.00 | 0.00 | 63 | 1007.3 |
| 20260504035548 | 35 | 249 | 0.0 | 0.0 | 0.00 | 0.00 | 0.00 | 62 | 1007.3 |
| 20260504035304 | 36 | 249 | 0.0 | 0.0 | 0.00 | 0.00 | 0.00 | 62 | 1007.4 |
| 20260504034536 | 36 | 249 | 0.0 | 0.0 | 0.00 | 0.00 | 0.00 | 61 | 1007.2 |
| 20260504034030 | 36 | 249 | 0.0 | 0.0 | 0.00 | 0.00 | 0.00 | 61 | 1007.3 |
| 20260504033749 | 36 | 249 | 0.0 | 0.0 | 0.00 | 0.00 | 0.00 | 61 | 1007.2 |
| 20260504033021 | 36 | 249 | 0.0 | 0.0 | 0.00 | 0.00 | 0.00 | 62 | 1007.1 |
| 20260504032739 | 36 | 249 | 0.0 | 0.0 | 0.00 | 0.00 | 0.00 | 62 | 1007.1 |
| 20260504032020 | 36 | 249 | 0.0 | 0.0 | 0.00 | 0.00 | 0.00 | 62 | 1007.1 |
| 20260504031519 | 36 | 249 | 0.0 | 0.0 | 0.00 | 0.00 | 0.00 | 62 | 1007.1 |
| 20260504031016 | 36 | 249 | 0.0 | 0.0 | 0.00 | 0.00 | 0.00 | 62 | 1007.1 |
| 20260504030513 | 35 | 249 | 0.0 | 0.0 | 0.00 | 0.00 | 0.00 | 62 | 1007.1 |
| 20260504030010 | 35 | 249 | 0.0 | 0.0 | 0.00 | 0.00 | 0.00 | 63 | 1007.2 |
| 20260504025512 | 35 | 249 | 0.0 | 0.0 | 0.00 | 0.01 | 0.00 | 64 | 1007.1 |
| 20260504025012 | 35 | 249 | 0.0 | 0.0 | 0.00 | 0.01 | 0.00 | 64 | 1007.1 |
| 20260504024511 | 35 | 249 | 0.0 | 0.0 | 0.00 | 0.01 | 0.00 | 63 | 1007.1 |
| 20260504024229 | 35 | 249 | 0.0 | 0.0 | 0.00 | 0.01 | 0.00 | 64 | 1007.1 |
| 20260504023511 | 35 | 249 | 0.0 | 0.0 | 0.00 | 0.01 | 0.00 | 64 | 1007.2 |
| 20260504023012 | 35 | 249 | 0.0 | 0.0 | 0.00 | 0.01 | 0.00 | 64 | 1007.2 |
| 20260504022731 | 36 | 249 | 0.0 | 0.0 | 0.00 | 0.01 | 0.00 | 63 | 1007.2 |
| 20260504022006 | 36 | 249 | 0.0 | 0.0 | 0.00 | 0.01 | 0.00 | 62 | 1007.3 |
| 20260504021506 | 36 | 249 | 0.0 | 0.0 | 0.00 | 0.01 | 0.00 | 62 | 1007.2 |
| 20260504021007 | 37 | 249 | 0.0 | 0.0 | 0.00 | 0.01 | 0.00 | 61 | 1007.1 |
| 20260504020508 | 37 | 249 | 0.0 | 0.0 | 0.00 | 0.01 | 0.00 | 61 | 1007.2 |
| 20260504020008 | 37 | 249 | 0.0 | 0.0 | 0.00 | 0.01 | 0.00 | 61 | 1007.1 |
| 20260504015508 | 38 | 249 | 0.0 | 0.0 | 0.00 | 0.01 | 0.00 | 60 | 1007.2 |
| 20260504015228 | 38 | 249 | 0.0 | 0.0 | 0.00 | 0.01 | 0.00 | 60 | 1007.1 |
| 20260504014734 | 38 | 249 | 0.0 | 0.0 | 0.00 | 0.01 | 0.00 | 59 | 1007.1 |
| 20260504014008 | 38 | 249 | 0.0 | 0.0 | 0.00 | 0.01 | 0.00 | 58 | 1007.0 |
| 20260504013506 | 39 | 249 | 0.0 | 0.0 | 0.00 | 0.01 | 0.00 | 57 | 1006.9 |
| 20260504013007 | 39 | 249 | 0.0 | 0.0 | 0.00 | 0.01 | 0.00 | 57 | 1006.8 |
| 20260504012506 | 40 | 249 | 0.0 | 0.0 | 0.00 | 0.01 | 0.00 | 57 | 1006.8 |
| 20260504012006 | 40 | 249 | 0.0 | 0.0 | 0.00 | 0.02 | 0.00 | 55 | 1006.8 |
| 20260504011508 | 41 | 249 | 0.0 | 0.0 | 0.00 | 0.02 | 0.00 | 54 | 1006.8 |
| 20260504011006 | 42 | 249 | 0.0 | 0.0 | 0.00 | 0.02 | 0.00 | 53 | 1006.8 |
| 20260504010506 | 42 | 249 | 0.0 | 0.0 | 0.00 | 0.02 | 0.00 | 51 | 1006.8 |
| 20260504010005 | 42 | 249 | 0.0 | 0.0 | 0.00 | 0.03 | 0.00 | 50 | 1006.7 |
| 20260504005459 | 43 | 249 | 0.0 | 0.0 | 0.00 | 0.03 | 0.00 | 49 | 1006.8 |
| 20260504004953 | 44 | 249 | 0.0 | 0.0 | 0.00 | 0.03 | 0.00 | 46 | 1006.7 |
| 20260504004448 | 44 | 249 | 0.0 | 0.0 | 0.00 | 0.03 | 0.00 | 46 | 1006.5 |
| 20260504003941 | 44 | 249 | 0.0 | 0.0 | 0.00 | 0.03 | 0.00 | 45 | 1006.5 |
| 20260504003435 | 44 | 249 | 0.0 | 0.0 | 0.00 | 0.03 | 0.00 | 45 | 1006.4 |
| 20260504002929 | 44 | 249 | 0.0 | 0.0 | 0.00 | 0.04 | 0.00 | 43 | 1006.3 |
| 20260504002423 | 45 | 249 | 0.0 | 0.0 | 0.00 | 0.04 | 0.00 | 45 | 1006.3 |
| 20260504001917 | 45 | 249 | 0.0 | 0.0 | 0.00 | 0.04 | 0.00 | 44 | 1006.2 |
| 20260504001410 | 45 | 249 | 0.0 | 1.0 | 0.00 | 0.04 | 0.00 | 43 | 1006.1 |
| 20260504001121 | 45 | 153 | 0.0 | 1.0 | 0.00 | 0.04 | 0.00 | 41 | 1006.1 |
| 20260504000357 | 45 | 238 | 0.0 | 0.0 | 0.00 | 0.04 | 0.00 | 42 | 1006.0 |
| 20260503235851 | 46 | 238 | 0.0 | 0.0 | 0.00 | 0.04 | 0.00 | 42 | 1006.0 |
| 20260503235345 | 46 | 238 | 0.0 | 0.0 | 0.00 | 0.04 | 0.00 | 42 | 1006.0 |
| 20260503234838 | 46 | 261 | 0.0 | 0.0 | 0.00 | 0.04 | 0.00 | 40 | 1005.9 |
| 20260503234605 | 46 | 253 | 0.0 | 0.0 | 0.00 | 0.04 | 0.00 | 40 | 1005.8 |
| 20260503233827 | 47 | 250 | 0.0 | 0.0 | 0.00 | 0.04 | 0.00 | 39 | 1005.7 |
| 20260503233321 | 47 | 272 | 0.0 | 0.0 | 0.00 | 0.04 | 0.00 | 38 | 1005.6 |
| 20260503232815 | 47 | 261 | 0.0 | 0.0 | 0.00 | 0.04 | 0.00 | 37 | 1005.6 |
| 20260503232309 | 47 | 336 | 0.0 | 0.0 | 0.00 | 0.04 | 0.00 | 36 | 1005.5 |
| 20260503231803 | 48 | 279 | 0.0 | 0.0 | 0.00 | 0.05 | 0.00 | 36 | 1005.3 |
| 20260503231257 | 48 | 264 | 0.0 | 0.0 | 0.00 | 0.05 | 0.00 | 37 | 1005.3 |
| 20260503230751 | 48 | 267 | 0.0 | 0.0 | 0.00 | 0.05 | 0.00 | 37 | 1005.2 |
| 20260503230245 | 49 | 267 | 0.0 | 0.0 | 0.00 | 0.05 | 0.00 | 37 | 1005.2 |
| 20260503225739 | 49 | 272 | 0.0 | 0.0 | 0.00 | 0.05 | 0.00 | 37 | 1005.0 |
| 20260503225233 | 49 | 261 | 0.0 | 0.0 | 0.00 | 0.05 | 0.00 | 37 | 1004.9 |
| 20260503224726 | 49 | 278 | 0.0 | 0.0 | 0.00 | 0.05 | 0.00 | 36 | 1004.9 |
| 20260503224220 | 49 | 283 | 0.0 | 0.0 | 0.00 | 0.05 | 0.00 | 36 | 1004.8 |
| 20260503223936 | 50 | 316 | 0.0 | 0.0 | 0.00 | 0.05 | 0.00 | 36 | 1004.7 |
| 20260503223432 | 50 | 296 | 0.0 | 0.0 | 0.00 | 0.05 | 0.00 | 35 | 1004.6 |
| 20260503222704 | 51 | 231 | 0.0 | 0.0 | 0.00 | 0.06 | 0.00 | 34 | 1004.6 |
| 20260503222428 | 51 | 329 | 0.0 | 0.0 | 0.00 | 0.06 | 0.00 | 35 | 1004.5 |